Regional Weather Roundup
Issued by NWS

Home | Current Version | Previous Version | Graphics & Text | Print | Product List | Glossary On
Versions: 1 2 3 4 5 6 7 8 9 10 11 12 13 14 15 16 17 18 19 20 21 22 23 24 25 26 27 28 29 30 31 32 33 34 35 36 37 38 39 40 41 42 43 44 45 46 47 48 49 50
000
ASUS45 KBOI 011910
RWRID
WEATHER ROUNDUP FOR IDAHO
NATIONAL WEATHER SERVICE BOISE ID
100 PM MDT MON SEP 01 2014

NOTE: "FAIR" INDICATES FEW OR NO CLOUDS BELOW 12000 FEET
WITH NO SIGNIFICANT WEATHER AND/OR OBSTRUCTIONS TO VISIBILITY

IDZ012-014-012000-
SOUTHWEST IDAHO


CITY           SKY/WX    TMP DP  RH WIND       PRES   REMARKS
BOISE          SUNNY     70  39  32 NW9       30.10F
CALDWELL       SUNNY     68  39  34 NW5       30.11F
MOUNTAIN HOME  SUNNY     71  39  31 NW8       30.09F
$$

IDZ016-017-012000-
SOUTHCENTRAL IDAHO


CITY           SKY/WX    TMP DP  RH WIND       PRES   REMARKS
BURLEY         SUNNY     69  42  37 W12G20    30.10F
JEROME         SUNNY     68  40  35 SW12      30.12S
TWIN FALLS     SUNNY     70  41  34 W12G20    30.12F
$$

IDZ019>023-012000-
SOUTHEAST IDAHO


CITY           SKY/WX    TMP DP  RH WIND       PRES   REMARKS
IDAHO FALLS    MOSUNNY   66  39  37 VRB5      30.10F
POCATELLO      MOSUNNY   70  38  31 W16G23    30.12S
REXBURG        SUNNY     62  41  46 SW7       30.11S
$$

IDZ006-010-011-018-031-032-012000-
CENTRAL IDAHO MOUNTAINS


CITY           SKY/WX    TMP DP  RH WIND       PRES   REMARKS
MCCALL         SUNNY     61  38  42 S5        30.11F
HAILEY         SUNNY     64  39  39 E12       30.12F
STANLEY          N/A     63  29  27 VRB5      30.16S
SALMON         SUNNY     64  39  39 E3        30.05F
CHALLIS        SUNNY     65  31  28 CALM      30.08F
$$

IDZ002-004-006-007-026-012000-
NORTHERN IDAHO


CITY           SKY/WX    TMP DP  RH WIND       PRES   REMARKS
LEWISTON       MOSUNNY   71  42  35 CALM      30.04F
LOWELL           N/A     74  43  32 CALM      30.04F
COEUR D`ALENE  MOSUNNY   66  10  11 SW8G17    30.04F
MULLAN PASS    CLOUDY    47  37  68 VRB7      30.11F
$$



USA.gov is the U.S. government's official web portal to all federal, state and local government web resources and services.